SCP
0 0 0 0 0 0 0 0 0 0 0 0 0 0 0 0 0 0 0 1 1 0 0 0 0 0 0 0 0 0 0 0 0 0 0 0 0 0 0 0 0 0 0
0 0 0 0 0 0 0 0 0 0 0 0 0 0 0 0 0 0 0 1 0 0 0 0 0 0 0 0 0 0 0 0 0 0 0 0 0 0 0 0 0 0 0
0 0 0 0 0 0 0 0 0 0 0 0 0 0 0 0 0 0 0 0 1 0 0 0 -0 0 0 0 0 0 0 0 0 0 0 0 0 0 0 0 0 0 0
0 0 0 0 0 0 0 0 0 0 0 0 0 0 0 0 0 0 1 0 1 1 0 0 0 0 0 0 0 0 0 0 0 0 0 0 0 0 -0 0 0 0 0
0 0 0 0 0 0 0 0 0 0 0 0 0 0 0 0 0 0 0 0 0 0 0 0 0 0 0 0 0 0 0 0 0 0 0 0 0 0 0 0 0 0 0
0 0 0 0 0 0 0 0 0 0 0 0 0 0 0 0 0 0 0 0 0 0 0 0 0 0 0 0 0 0 0 0 0 0 0 0 0 0 0 0 0 0 0
0 0 0 0 0 0 0 0 0 0 0 0 0 0 0 0 0 0 0 0 0 0 0 0 0 0 0 0 0 0 0 0 -0 -0 0 0 0 0 0 -0 -0 0 0
0 0 0 0 0 0 0 0 0 0 0 0 0 0 0 0 0 0 0 0 0 0 0 0 0 0 0 0 0 0 -0 0 0 -0 0 0 0 0 0 -0 0 0 0
0 0 0 0 0 -0 0 -0 0 0 0 0 0 0 0 0 0 0 0 0 0 0 0 0 0 0 0 0 0 0 0 0 -0 -0 0 0 0 0 -0 0 0 0 0
0 0 0 -0 -0 0 0 0 0 0 0 0 0 0 0 0 0 0 0 0 0 0 0 0 0 0 0 0 -0 0 0 -0 -0 -0 0 -0 -0 -0 -0 0 0 0 0
-0 0 -0 -0 0 -0 0 0 0 0 0 0 0 0 0 0 0 0 0 0 0 0 0 0 0 0 -0 0 0 0 -0 -0 0 0 -0 -0 -0 0 0 0 0 0 0
-0 0 0 0 -0 -0 0 0 0 0 0 0 0 0 0 0 0 0 0 0 0 0 0 0 0 0 0 0 0 0 0 -0 0 -0 0 0 -0 0 0 0 0 0 0
-0 -0 -0 -0 0 0 0 0 0 0 0 0 0 0 0 0 0 0 0 0 0 0 0 0 0 0 0 0 0 0 0 0 0 0 0 0 0 0 0 0 0 0 0
0 -0 -0 -0 0 0 0 0 0 0 0 0 0 0 0 0 0 0 0 0 0 0 0 0 0 0 0 0 0 0 0 0 0 0 0 0 0 0 0 0 0 0 0
0 0 -0 -0 0 0 0 0 0 0 0 0 0 0 0 0 0 0 0 0 0 0 0 0 0 0 0 0 0 0 0 0 0 -0 -0 0 0 0 0 -0 0 0 0
0 -0 -0 0 0 0 0 0 0 0 0 0 0 0 0 0 0 0 0 0 0 0 0 0 0 0 0 0 0 0 0 0 0 0 0 0 0 0 -0 -0 0 0 0
0 0 0 0 0 0 0 0 0 0 0 0 0 0 0 0 0 0 0 0 0 0 0 0 0 0 0 0 0 0 0 0 0 -0 -0 -0 0 -0 0 0 0 0 0
0 0 -0 -0 0 0 0 0 0 0 0 0 0 0 0 0 0 0 0 0 0 0 0 0 0 0 0 0 0 0 0 0 0 -0 -0 -0 0 0 0 0 0 0 0
0 0 0 -0 -0 0 0 0 0 0 0 0 0 0 0 0 0 0 0 0 0 0 0 0 0 0 0 0 0 0 0 0 0 0 -0 -0 0 0 0 0 0 0 0
0 0 0 0 0 0 0 0 0 0 0 0 0 0 0 0 0 0 0 0 0 0 0 0 0 0 0 0 0 0 0 0 0 0 0 0 0 0 0 0 0 0 0
0 0 0 0 -0 0 0 0 0 0 0 0 0 0 0 0 0 0 0 0 0 0 0 0 0 0 0 0 0 0 0 0 0 0 0 0 0 0 0 0 0 0 0
0 0 0 0 0 -0 0 0 0 0 0 0 0 0 0 -0 -0 -0 -0 0 0 0 0 0 0 0 0 0 0 0 0 0 0 0 0 0 0 0 0 0 0 0 0
0 0 0 0 0 0 0 0 0 0 0 0 0 0 0 0 0 0 -0 0 0 0 0 0 0 0 0 0 0 0 0 0 0 0 0 0 0 0 0 0 0 0 0
0 0 -0 0 0 0 0 0 0 0 0 0 0 0 0 0 0 0 0 0 0 0 0 0 0 0 0 -0 -0 0 0 0 0 0 0 0 0 0 0 0 0 0 0
0 0 0 0 -0 0 0 0 0 0 0 0 0 0 0 0 0 0 0 0 0 0 0 0 0 -0 -0 0 -0 0 0 0 0 0 0 0 0 0 0 0 0 0 0
0 0 0 0 0 0 0 0 0 0 0 0 0 -0 -0 0 0 0 0 0 0 0 0 0 0 0 0 -0 0 0 0 0 0 0 0 0 0 0 0 0 0 0 0
Wind_Speed_500mb
34 29 30 25 22 21 25 30 30 30 36 40 38 37 42 41 38 39 39 34 40 43 46 55 45 44 57 56 58 58 61 54 43 42 42 40 34 29 25 23 18 11 9
33 32 32 26 23 24 24 27 29 29 33 35 33 33 39 39 39 39 37 37 42 41 45 50 41 45 52 59 60 59 62 54 46 45 41 37 32 27 24 19 14 10 10
32 33 29 27 23 24 25 25 30 30 35 36 34 36 41 35 36 38 34 40 38 39 44 48 40 51 57 60 69 69 63 51 47 42 39 34 29 25 21 16 12 12 16
30 31 29 28 25 26 24 23 32 32 38 36 32 41 38 34 32 35 31 36 38 38 44 45 50 55 52 55 60 68 62 57 51 44 37 33 27 22 18 13 12 17 20
26 29 29 26 27 24 23 23 35 32 39 39 34 39 34 34 26 33 32 36 35 38 42 44 44 45 47 57 67 73 63 59 46 44 38 33 27 21 14 10 17 22 20
22 26 27 25 25 22 23 28 35 31 36 34 30 33 29 31 32 30 31 35 36 33 42 50 46 45 57 53 70 73 67 53 47 42 38 32 27 17 12 17 23 21 17
19 22 24 25 23 20 19 34 34 33 36 30 35 32 23 30 29 31 32 35 38 35 42 50 51 53 57 67 74 63 62 58 47 43 37 30 21 11 13 21 21 18 14
15 17 22 21 19 18 21 41 39 35 33 30 36 32 24 26 31 30 31 34 37 40 44 51 48 51 57 75 74 70 64 58 50 43 35 28 20 14 18 21 18 15 9
8 13 22 19 18 17 23 39 38 35 34 33 35 26 19 11 28 29 32 36 39 42 42 40 40 49 57 67 74 71 62 57 48 41 34 26 16 17 23 17 16 9 5
5 12 17 16 19 20 27 31 34 34 34 38 41 32 29 24 18 17 29 32 36 44 41 32 30 43 66 79 72 67 61 54 45 38 30 25 18 17 15 14 13 6 2
8 14 17 21 20 24 24 30 31 30 31 38 36 26 19 13 31 38 23 29 38 47 55 41 31 56 75 74 78 65 59 49 42 34 27 17 15 14 12 12 9 4 3
12 19 20 19 20 25 27 29 28 30 31 32 32 36 29 28 38 40 34 21 40 56 53 43 40 61 69 79 67 73 57 48 33 23 20 17 11 10 12 11 8 3 6
14 23 20 20 17 21 25 29 29 28 30 33 31 26 28 28 37 35 42 32 26 41 49 46 48 65 71 73 45 51 50 35 28 26 20 12 9 11 11 10 5 7 9
12 23 22 23 16 20 21 27 24 22 24 25 28 25 22 30 29 31 34 50 45 28 50 57 53 67 71 63 50 51 48 37 27 21 14 7 8 8 8 6 6 10 11
12 20 24 25 21 21 23 24 24 23 27 29 29 27 28 28 33 32 39 38 58 36 37 48 47 67 70 58 49 54 43 32 27 19 10 8 7 6 7 6 10 12 13
8 17 25 30 23 24 24 24 24 23 24 26 28 28 26 34 36 40 26 42 42 53 30 56 38 78 62 61 56 43 34 26 19 14 7 4 6 6 7 6 10 14 18
11 15 25 30 27 24 24 22 20 24 21 24 26 26 31 36 37 33 28 34 32 39 49 53 40 57 62 60 52 39 31 20 13 6 8 6 6 5 5 9 13 18 23
16 18 23 24 26 22 21 20 23 22 24 25 29 30 33 37 38 26 31 35 28 44 42 52 40 55 62 51 45 31 19 7 3 5 6 6 6 7 7 11 17 23 24
19 19 18 21 24 23 21 20 21 22 20 19 23 28 33 36 35 27 32 35 34 36 36 45 45 52 51 45 49 30 19 14 9 9 8 6 5 5 12 15 20 24 27
21 22 22 23 22 21 22 19 24 26 19 20 21 25 35 34 35 41 41 36 35 43 37 42 44 47 44 41 39 27 25 14 9 6 6 1 5 10 17 20 24 28 32
20 23 21 22 22 22 22 18 20 13 12 18 27 28 35 34 46 43 41 46 57 45 39 43 46 44 42 40 35 26 19 13 10 7 5 5 8 12 18 24 29 35 38
20 17 17 17 22 25 17 24 20 12 13 18 30 30 38 49 43 35 48 47 47 41 37 32 33 38 37 29 21 23 21 16 6 4 3 5 13 19 27 28 26 28 31
16 18 17 13 10 20 37 30 26 28 17 22 31 33 41 48 48 51 49 40 32 26 19 19 29 32 31 29 26 23 17 10 7 8 12 14 18 18 17 22 30 36 40
18 22 28 26 28 34 28 26 21 32 30 45 48 48 55 52 54 43 33 24 28 32 32 34 35 34 29 25 21 16 11 11 11 15 11 8 16 22 19 24 32 30 35
25 26 27 23 24 31 31 29 34 36 40 43 47 50 54 51 40 30 26 31 34 33 29 25 26 22 20 18 13 13 10 10 10 12 16 18 17 23 16 16 20 29 32
27 26 29 26 24 25 28 31 33 35 41 43 47 50 44 35 28 27 31 32 31 27 24 25 26 20 12 8 5 2 7 8 9 8 13 12 15 12 5 11 24 31 35
Wind_Direction_500mb
273 271 269 281 274 263 268 254 244 236 223 224 218 224 213 214 219 219 215 217 206 205 202 198 203 202 201 200 197 194 184 172 169 171 164 163 163 162 154 154 153 150 162
270 265 266 270 273 270 273 255 236 229 218 207 213 216 206 210 218 216 209 216 208 209 204 195 194 198 192 195 194 186 182 160 166 167 165 166 161 158 156 154 148 149 152
272 264 259 258 270 267 267 250 223 218 205 205 211 208 203 208 216 207 210 212 212 204 201 195 199 198 195 199 193 187 169 164 165 166 164 158 158 159 158 148 149 143 141
277 262 255 254 263 263 263 247 215 209 199 205 213 201 205 208 204 201 210 207 207 205 203 203 196 198 196 204 198 183 164 161 161 164 157 160 159 161 153 152 145 142 135
282 259 252 251 251 258 257 232 206 205 201 205 208 202 210 206 200 210 204 207 210 212 204 194 190 194 198 198 192 174 161 157 163 160 165 162 159 158 155 153 147 142 133
292 253 241 241 245 255 250 211 199 203 203 199 200 204 210 206 211 214 205 204 212 211 206 192 184 191 182 195 171 159 156 165 162 165 165 160 157 149 166 155 149 143 133
299 244 242 233 243 252 245 198 191 197 195 194 195 196 208 209 213 207 207 207 207 208 207 199 190 186 190 185 167 164 162 162 162 164 161 152 140 154 167 155 149 147 125
278 251 224 221 236 232 206 189 190 192 197 188 194 186 181 193 197 209 208 213 212 210 205 199 195 193 197 180 169 165 164 161 162 158 149 146 161 171 163 159 148 144 128
274 233 200 213 222 211 194 186 189 191 191 195 196 177 152 171 194 207 205 216 214 212 206 199 199 198 191 178 166 161 165 160 157 153 146 161 152 169 152 147 155 148 105
253 192 198 202 192 184 176 179 184 183 192 193 185 196 189 182 168 167 209 218 211 212 195 203 196 203 201 172 165 161 159 159 153 162 157 163 162 149 144 160 161 153 15
219 186 181 178 180 181 173 177 181 185 186 183 186 185 209 232 200 161 171 196 221 210 195 192 200 174 160 165 152 155 156 157 164 162 169 144 159 139 159 175 176 184 283
194 180 167 172 183 183 185 194 193 190 185 186 193 201 215 215 183 173 154 170 166 186 187 182 177 170 167 159 155 159 156 157 157 157 163 167 131 165 183 189 196 249 316
187 180 170 172 179 180 181 185 188 189 188 195 191 201 210 221 205 192 162 119 147 147 161 178 176 177 173 169 159 156 152 149 169 174 174 150 161 190 194 206 233 292 311
166 173 173 170 171 163 165 174 181 182 189 199 209 215 211 205 201 196 176 165 175 166 142 160 172 177 172 166 163 156 156 168 172 172 176 164 200 203 211 223 272 302 302
126 171 171 169 169 165 170 168 177 184 194 202 207 199 200 207 206 195 163 174 184 155 141 162 156 165 168 171 159 162 161 162 174 177 186 221 198 204 225 246 291 306 320
141 161 174 173 175 180 177 179 183 192 194 196 198 193 202 201 189 184 192 183 177 168 148 168 159 170 175 179 169 157 156 163 177 183 204 215 207 217 232 296 308 325 329
123 165 175 176 181 183 188 188 193 187 187 188 187 195 197 191 188 190 193 185 177 180 166 171 171 166 169 161 159 159 155 170 177 161 188 193 205 223 287 312 324 326 327
118 144 155 172 185 180 178 185 183 185 182 177 188 197 203 202 193 194 185 189 175 191 176 163 163 167 177 172 167 171 176 196 213 200 177 192 210 251 300 330 324 321 331
111 123 127 144 157 159 162 169 172 173 179 183 189 186 185 174 181 185 179 174 180 157 166 160 164 159 163 176 180 194 203 220 210 184 177 222 264 314 321 327 330 331 333
112 115 126 135 148 156 155 147 141 129 137 166 166 173 173 171 177 164 149 153 162 157 150 165 167 171 171 173 181 200 215 211 197 207 212 248 330 339 336 325 314 309 307
126 119 127 138 140 147 161 159 162 148 142 159 159 162 166 172 169 166 159 142 141 139 136 137 148 159 167 180 194 203 188 180 187 210 211 41 360 336 309 307 309 305 302
121 135 154 154 168 168 174 198 189 189 154 161 164 161 166 169 153 148 144 146 141 138 135 146 158 163 163 170 171 167 176 189 176 194 143 310 316 320 324 317 313 312 310
123 133 136 143 165 202 192 201 199 197 174 164 165 171 172 161 153 150 140 144 142 145 151 143 151 160 156 154 154 156 151 153 202 260 297 327 331 338 335 323 311 310 317
120 124 133 120 105 103 101 124 139 149 152 143 139 140 144 141 142 147 154 152 152 136 124 117 117 116 127 133 134 140 160 214 261 281 303 305 328 340 337 312 312 322 333
127 130 136 137 129 113 109 113 133 133 141 144 146 150 148 142 146 145 139 138 145 134 130 139 142 143 146 159 166 187 210 244 262 273 297 314 323 313 302 292 306 328 331
134 133 135 139 135 128 122 122 130 141 153 154 159 153 153 150 150 146 142 150 148 137 129 144 155 151 152 159 158 276 279 283 273 281 297 294 292 315 289 261 307 334 345
Wind_Speed_850mb
34 29 30 25 22 21 25 30 30 30 36 40 38 37 42 41 38 39 39 34 40 43 46 55 45 44 57 56 58 58 61 54 43 42 42 40 34 29 25 23 18 11 9
33 32 32 26 23 24 24 27 29 29 33 35 33 33 39 39 39 39 37 37 42 41 45 50 41 45 52 59 60 59 62 54 46 45 41 37 32 27 24 19 14 10 10
32 33 29 27 23 24 25 25 30 30 35 36 34 36 41 35 36 38 34 40 38 39 44 48 40 51 57 60 69 69 63 51 47 42 39 34 29 25 21 16 12 12 16
30 31 29 28 25 26 24 23 32 32 38 36 32 41 38 34 32 35 31 36 38 38 44 45 50 55 52 55 60 68 62 57 51 44 37 33 27 22 18 13 12 17 20
26 29 29 26 27 24 23 23 35 32 39 39 34 39 34 34 26 33 32 36 35 38 42 44 44 45 47 57 67 73 63 59 46 44 38 33 27 21 14 10 17 22 20
22 26 27 25 25 22 23 28 35 31 36 34 30 33 29 31 32 30 31 35 36 33 42 50 46 45 57 53 70 73 67 53 47 42 38 32 27 17 12 17 23 21 17
19 22 24 25 23 20 19 34 34 33 36 30 35 32 23 30 29 31 32 35 38 35 42 50 51 53 57 67 74 63 62 58 47 43 37 30 21 11 13 21 21 18 14
15 17 22 21 19 18 21 41 39 35 33 30 36 32 24 26 31 30 31 34 37 40 44 51 48 51 57 75 74 70 64 58 50 43 35 28 20 14 18 21 18 15 9
8 13 22 19 18 17 23 39 38 35 34 33 35 26 19 11 28 29 32 36 39 42 42 40 40 49 57 67 74 71 62 57 48 41 34 26 16 17 23 17 16 9 5
5 12 17 16 19 20 27 31 34 34 34 38 41 32 29 24 18 17 29 32 36 44 41 32 30 43 66 79 72 67 61 54 45 38 30 25 18 17 15 14 13 6 2
8 14 17 21 20 24 24 30 31 30 31 38 36 26 19 13 31 38 23 29 38 47 55 41 31 56 75 74 78 65 59 49 42 34 27 17 15 14 12 12 9 4 3
12 19 20 19 20 25 27 29 28 30 31 32 32 36 29 28 38 40 34 21 40 56 53 43 40 61 69 79 67 73 57 48 33 23 20 17 11 10 12 11 8 3 6
14 23 20 20 17 21 25 29 29 28 30 33 31 26 28 28 37 35 42 32 26 41 49 46 48 65 71 73 45 51 50 35 28 26 20 12 9 11 11 10 5 7 9
12 23 22 23 16 20 21 27 24 22 24 25 28 25 22 30 29 31 34 50 45 28 50 57 53 67 71 63 50 51 48 37 27 21 14 7 8 8 8 6 6 10 11
12 20 24 25 21 21 23 24 24 23 27 29 29 27 28 28 33 32 39 38 58 36 37 48 47 67 70 58 49 54 43 32 27 19 10 8 7 6 7 6 10 12 13
8 17 25 30 23 24 24 24 24 23 24 26 28 28 26 34 36 40 26 42 42 53 30 56 38 78 62 61 56 43 34 26 19 14 7 4 6 6 7 6 10 14 18
11 15 25 30 27 24 24 22 20 24 21 24 26 26 31 36 37 33 28 34 32 39 49 53 40 57 62 60 52 39 31 20 13 6 8 6 6 5 5 9 13 18 23
16 18 23 24 26 22 21 20 23 22 24 25 29 30 33 37 38 26 31 35 28 44 42 52 40 55 62 51 45 31 19 7 3 5 6 6 6 7 7 11 17 23 24
19 19 18 21 24 23 21 20 21 22 20 19 23 28 33 36 35 27 32 35 34 36 36 45 45 52 51 45 49 30 19 14 9 9 8 6 5 5 12 15 20 24 27
21 22 22 23 22 21 22 19 24 26 19 20 21 25 35 34 35 41 41 36 35 43 37 42 44 47 44 41 39 27 25 14 9 6 6 1 5 10 17 20 24 28 32
20 23 21 22 22 22 22 18 20 13 12 18 27 28 35 34 46 43 41 46 57 45 39 43 46 44 42 40 35 26 19 13 10 7 5 5 8 12 18 24 29 35 38
20 17 17 17 22 25 17 24 20 12 13 18 30 30 38 49 43 35 48 47 47 41 37 32 33 38 37 29 21 23 21 16 6 4 3 5 13 19 27 28 26 28 31
16 18 17 13 10 20 37 30 26 28 17 22 31 33 41 48 48 51 49 40 32 26 19 19 29 32 31 29 26 23 17 10 7 8 12 14 18 18 17 22 30 36 40
18 22 28 26 28 34 28 26 21 32 30 45 48 48 55 52 54 43 33 24 28 32 32 34 35 34 29 25 21 16 11 11 11 15 11 8 16 22 19 24 32 30 35
25 26 27 23 24 31 31 29 34 36 40 43 47 50 54 51 40 30 26 31 34 33 29 25 26 22 20 18 13 13 10 10 10 12 16 18 17 23 16 16 20 29 32
27 26 29 26 24 25 28 31 33 35 41 43 47 50 44 35 28 27 31 32 31 27 24 25 26 20 12 8 5 2 7 8 9 8 13 12 15 12 5 11 24 31 35
Wind_Direction_850mb
273 271 269 281 274 263 268 254 244 236 223 224 218 224 213 214 219 219 215 217 206 205 202 198 203 202 201 200 197 194 184 172 169 171 164 163 163 162 154 154 153 150 162
270 265 266 270 273 270 273 255 236 229 218 207 213 216 206 210 218 216 209 216 208 209 204 195 194 198 192 195 194 186 182 160 166 167 165 166 161 158 156 154 148 149 152
272 264 259 258 270 267 267 250 223 218 205 205 211 208 203 208 216 207 210 212 212 204 201 195 199 198 195 199 193 187 169 164 165 166 164 158 158 159 158 148 149 143 141
277 262 255 254 263 263 263 247 215 209 199 205 213 201 205 208 204 201 210 207 207 205 203 203 196 198 196 204 198 183 164 161 161 164 157 160 159 161 153 152 145 142 135
282 259 252 251 251 258 257 232 206 205 201 205 208 202 210 206 200 210 204 207 210 212 204 194 190 194 198 198 192 174 161 157 163 160 165 162 159 158 155 153 147 142 133
292 253 241 241 245 255 250 211 199 203 203 199 200 204 210 206 211 214 205 204 212 211 206 192 184 191 182 195 171 159 156 165 162 165 165 160 157 149 166 155 149 143 133
299 244 242 233 243 252 245 198 191 197 195 194 195 196 208 209 213 207 207 207 207 208 207 199 190 186 190 185 167 164 162 162 162 164 161 152 140 154 167 155 149 147 125
278 251 224 221 236 232 206 189 190 192 197 188 194 186 181 193 197 209 208 213 212 210 205 199 195 193 197 180 169 165 164 161 162 158 149 146 161 171 163 159 148 144 128
274 233 200 213 222 211 194 186 189 191 191 195 196 177 152 171 194 207 205 216 214 212 206 199 199 198 191 178 166 161 165 160 157 153 146 161 152 169 152 147 155 148 105
253 192 198 202 192 184 176 179 184 183 192 193 185 196 189 182 168 167 209 218 211 212 195 203 196 203 201 172 165 161 159 159 153 162 157 163 162 149 144 160 161 153 15
219 186 181 178 180 181 173 177 181 185 186 183 186 185 209 232 200 161 171 196 221 210 195 192 200 174 160 165 152 155 156 157 164 162 169 144 159 139 159 175 176 184 283
194 180 167 172 183 183 185 194 193 190 185 186 193 201 215 215 183 173 154 170 166 186 187 182 177 170 167 159 155 159 156 157 157 157 163 167 131 165 183 189 196 249 316
187 180 170 172 179 180 181 185 188 189 188 195 191 201 210 221 205 192 162 119 147 147 161 178 176 177 173 169 159 156 152 149 169 174 174 150 161 190 194 206 233 292 311
166 173 173 170 171 163 165 174 181 182 189 199 209 215 211 205 201 196 176 165 175 166 142 160 172 177 172 166 163 156 156 168 172 172 176 164 200 203 211 223 272 302 302
126 171 171 169 169 165 170 168 177 184 194 202 207 199 200 207 206 195 163 174 184 155 141 162 156 165 168 171 159 162 161 162 174 177 186 221 198 204 225 246 291 306 320
141 161 174 173 175 180 177 179 183 192 194 196 198 193 202 201 189 184 192 183 177 168 148 168 159 170 175 179 169 157 156 163 177 183 204 215 207 217 232 296 308 325 329
123 165 175 176 181 183 188 188 193 187 187 188 187 195 197 191 188 190 193 185 177 180 166 171 171 166 169 161 159 159 155 170 177 161 188 193 205 223 287 312 324 326 327
118 144 155 172 185 180 178 185 183 185 182 177 188 197 203 202 193 194 185 189 175 191 176 163 163 167 177 172 167 171 176 196 213 200 177 192 210 251 300 330 324 321 331
111 123 127 144 157 159 162 169 172 173 179 183 189 186 185 174 181 185 179 174 180 157 166 160 164 159 163 176 180 194 203 220 210 184 177 222 264 314 321 327 330 331 333
112 115 126 135 148 156 155 147 141 129 137 166 166 173 173 171 177 164 149 153 162 157 150 165 167 171 171 173 181 200 215 211 197 207 212 248 330 339 336 325 314 309 307
126 119 127 138 140 147 161 159 162 148 142 159 159 162 166 172 169 166 159 142 141 139 136 137 148 159 167 180 194 203 188 180 187 210 211 41 360 336 309 307 309 305 302
121 135 154 154 168 168 174 198 189 189 154 161 164 161 166 169 153 148 144 146 141 138 135 146 158 163 163 170 171 167 176 189 176 194 143 310 316 320 324 317 313 312 310
123 133 136 143 165 202 192 201 199 197 174 164 165 171 172 161 153 150 140 144 142 145 151 143 151 160 156 154 154 156 151 153 202 260 297 327 331 338 335 323 311 310 317
120 124 133 120 105 103 101 124 139 149 152 143 139 140 144 141 142 147 154 152 152 136 124 117 117 116 127 133 134 140 160 214 261 281 303 305 328 340 337 312 312 322 333
127 130 136 137 129 113 109 113 133 133 141 144 146 150 148 142 146 145 139 138 145 134 130 139 142 143 146 159 166 187 210 244 262 273 297 314 323 313 302 292 306 328 331
134 133 135 139 135 128 122 122 130 141 153 154 159 153 153 150 150 146 142 150 148 137 129 144 155 151 152 159 158 276 279 283 273 281 297 294 292 315 289 261 307 334 345